This demonstration page uses our WeatherBlox Daily Observations layout. Learn more.

Left ArrowRight Arrow

41.86663, -103.66717

Hourly Observations for October 4, 2015

Temp ( °F °C ) Dew Point ( °F °C ) Humidity (%) Winds ( mph kmh ) Pressure ( in mb ) Visibility ( mi km ) Precip ( " mm )
12:53 am 00:53 Cloudy with Mist and Fog 49 9.4 47 8.3 93 93 ESE 12 19 30.02 1017 3 5 N/A
1:53 am 01:53 Cloudy with Mist and Fog 49 9.4 47 8.3 93 93 SE 10 17 30.03 1017 5 8 N/A
2:13 am 02:13 Cloudy 49 9.4 47 8.3 93 93 SE 13 20 30.03 1017 8 13 N/A
2:53 am 02:53 Cloudy 49 9.4 47 8.3 93 93 SSE 12 19 30.03 1017 8 13 N/A
3:53 am 03:53 Cloudy 49 9.4 47 8.3 93 93 SSE 8 13 30.04 1017 9 14 N/A
4:19 am 04:19 Cloudy with Light Rain 49 9.4 46 7.8 90 90 ESE 9 15 30.03 1017 9 14 N/A
4:27 am 04:27 Cloudy with Light Rain 49 9.4 46 7.8 90 90 SE 8 13 30.03 1017 9 14 N/A
4:48 am 04:48 Cloudy 48 9 46 8 94 94 SE 8 13 30.03 1017 10 16 N/A
4:53 am 04:53 Cloudy 49 9.4 47 8.3 93 93 SE 7 11 30.04 1017 10 16 N/A
5:27 am 05:27 Cloudy 49 9.4 47 8.3 93 93 N N/A 30.06 1018 9 14 N/A
5:53 am 05:53 Cloudy with Light Rain 49 9.4 47 8.3 93 93 SE 5 7 30.06 1018 7 11 N/A
6:53 am 06:53 Cloudy with Mist and Fog 49 9.4 47 8.3 93 93 ESE 8 13 30.06 1018 6 10 N/A
7:53 am 07:53 Cloudy with Mist and Fog 50 10 48 8.9 93 93 E 14 22 30.03 1017 6 10 N/A
8:21 am 08:21 Cloudy with Mist and Fog 49 9.4 48 8.9 97 97 SE 9 15 30.06 1018 6 10 N/A
8:43 am 08:43 Cloudy with Mist and Fog 50 10 48 8.9 93 93 SE 9 15 30.06 1018 6 10 N/A
8:53 am 08:53 Cloudy 50 10 48 8.9 93 93 ESE 8 13 30.07 1018 7 11 N/A
9:53 am 09:53 Cloudy 51 10.6 48 8.9 89 89 SE 6 9 30.09 1019 9 14 N/A
10:04 am 10:04 Cloudy 52 11 48 9 88 88 ESE 8 13 30.06 1018 10 16 N/A
10:26 am 10:26 Cloudy 51 10.6 48 8.9 89 89 E 9 15 30.06 1018 8 13 N/A
10:50 am 10:50 Cloudy 52 11 48 9 88 88 ESE 10 17 30.06 1018 8 13 N/A
10:53 am 10:53 Cloudy 51 10.6 48 8.9 89 89 ESE 10 17 30.09 1019 8 13 N/A
11:53 am 11:53 Cloudy 52 11.1 48 8.9 86 86 E 8 13 30.08 1019 8 13 N/A
12:53 pm 12:53 Cloudy 52 11.1 48 8.9 86 86 SE 10 17 30.08 1019 9 14 N/A
1:31 pm 13:31 Cloudy 52 11.1 47 8.3 83 83 ESE 9 15 30.06 1018 10 16 N/A
1:53 pm 13:53 Cloudy 52 11.1 47 8.3 83 83 ESE 10 17 30.07 1018 10 16 N/A
2:20 pm 14:20 Cloudy 52 11 46 8 82 82 ESE 10 17 30.03 1017 10 16 N/A
2:53 pm 14:53 Cloudy 52 11.1 48 8.9 86 86 ESE 10 17 30.06 1018 7 11 N/A
3:53 pm 15:53 Cloudy 52 11.1 48 8.9 86 86 ESE 9 15 30.06 1018 10 16 N/A
4:09 pm 16:09 Cloudy 52 11.1 48 8.9 86 86 ESE 10 17 30.03 1017 10 16 N/A
4:24 pm 16:24 Cloudy 54 12 48 9 82 82 ESE 8 13 30.03 1017 10 16 N/A
4:53 pm 16:53 Cloudy 53 11.7 48 8.9 83 83 ESE 8 13 30.06 1018 10 16 N/A
5:53 pm 17:53 Cloudy 52 11.1 48 8.9 86 86 ESE 8 13 30.06 1018 10 16 N/A
6:53 pm 18:53 Cloudy 52 11.1 48 8.9 86 86 undefined N/A 30.07 1018 10 16 N/A
7:12 pm 19:12 Cloudy 52 11 48 9 88 88 undefined N/A 30.06 1018 10 16 N/A
7:43 pm 19:43 Cloudy 51 10.6 47 8.3 86 86 ESE 9 15 30.06 1018 10 16 N/A
7:53 pm 19:53 Cloudy 51 10.6 47 8.3 86 86 ESE 10 17 30.08 1019 10 16 N/A
8:16 pm 20:16 Cloudy 52 11 48 9 88 88 ESE 9 15 30.06 1018 10 16 N/A
8:30 pm 20:30 Cloudy 52 11 48 9 88 88 SE 7 11 30.06 1018 10 16 N/A
8:53 pm 20:53 Cloudy 51 10.6 48 8.9 89 89 ESE 9 15 30.09 1019 9 14 N/A
9:29 pm 21:29 Cloudy 50 10 48 8.9 93 93 undefined N/A 30.09 1019 7 11 N/A
9:53 pm 21:53 Cloudy 50 10 48 8.9 93 93 ESE 13 20 30.09 1019 7 11 N/A
10:19 pm 22:19 Cloudy 51 10.6 49 9.4 92 92 SE 12 19 30.06 1018 7 11 N/A
10:53 pm 22:53 Cloudy 51 10.6 49 9.4 92 92 ESE 10 17 30.09 1019 7 11 N/A
11:53 pm 23:53 Cloudy with Mist and Fog 51 10.6 49 9.4 92 92 ESE 8 13 30.07 1018 6 10 N/A

Powered by AerisWeather